Location: Kott?ru
(16.6209°N, 80.6208°E)
Time: 19:44:58
(UTC+00:00)

CZ-2D R/B - Visible Passes

Search period start: 26 January 2021 00:00
Search period end: 05 February 2021 00:00
Orbit: 520 x 538 km, 97.4° (Epoch: 26 January)

Date Brightness Start Highest point End Pass type
(mag) Time Alt. Az. Time Alt. Az. Time Alt. Az.
26 Jan 6.6 14:05:25 10° SW 14:07:25 14° W 14:09:25 10° WNW visible
27 Jan 6.1 13:53:56 10° SW 13:56:45 20° W 13:59:35 10° NW visible
28 Jan 5.5 13:42:47 10° SSW 13:46:06 28° W 13:49:25 10° NW visible
29 Jan 4.7 13:31:50 10° S 13:35:27 40° W 13:39:04 10° NNW visible
30 Jan 3.8 13:21:01 10° S 13:24:48 60° W 13:28:35 10° NNW visible
31 Jan 3.2 13:10:20 10° SSE 13:14:10 90° E 13:18:00 10° N visible
01 Feb 3.2 12:59:45 10° SSE 13:03:32 60° ENE 13:07:18 10° N visible
02 Feb 6.4 00:46:46 10° NE 00:49:31 19° E 00:52:17 10° SE visible
03 Feb 6.8 00:36:56 10° ENE 00:38:51 13° E 00:40:46 10° SE visible
04 Feb 6.6 14:03:46 10° SW 14:05:49 14° W 14:07:52 10° WNW visible
